Location: Newark
(55.1520°N, 2.9990°W)
Time: 04:01:41
(UTC+00:00)

N. Korean satellite - Pass Details

Date: 26 September 2020
Orbit: 453 x 505 km, 97.2° (Epoch: 21 October)

Event Time Altitude Azimuth Distance (km) Brightness Sun altitude
Rises 04:50:10 0° 25° (NNE) 2,605 10.9 -11.5°
Reaches altitude 10° 04:52:50 10° 46° (NE) 1,707 10.3 -11.1°
Maximum altitude 04:55:22 17° 89° (E) 1,296 9.9 -10.8°
Drops below altitude 10° 04:57:50 10° 133° (SE) 1,677 9.8 -10.4°
Sets 05:00:25 0° 154° (SSE) 2,540 10.4 -10.1°
